Weather History for KSBN - June, 2014

Change the Weather History Date:

Monday, June 23, 2014

  Actual Average Record
Temperature  
Mean Temperature 77 °F 71 °F  
Max Temperature 85 °F 82 °F 97 °F (1930)
Min Temperature 69 °F 61 °F 37 °F (1918)
Degree Days  
Heating Degree Days 0 1  
Month to date heating degree days 17 40  
Since 1 June heating degree days 17 40  
Since 1 July heating degree days 6953 6294  
Cooling Degree Days 12 7  
Month to date cooling degree days 144 112  
Year to date cooling degree days 229 168  
Since 1 June cooling degree days 144 112  
Growing Degree Days 26 (Base 50)    
Moisture  
Dew Point 67 °F    
Average Humidity 78    
Maximum Humidity 90    
Minimum Humidity 65    
Precipitation  
Precipitation 1.12 in 0.13 in 2.04 in (1931)
Month to date precipitation 7.13 2.98  
Year to date precipitation 22.21 16.70  
Sea Level Pressure  
Sea Level Pressure 29.87 in    
Wind  
Wind Speed 6 mph (South)    
Max Wind Speed 38 mph    
Max Gust Speed 48 mph    
Visibility 7 miles    
Events Fog , Rain , Thunderstorm    
T = Trace of Precipitation, MM = Missing Value Source: NWS Daily Summary

Daily Weather History Graph

Daily Weather History Graph

Search for Another Location

Airport or City:

Trip Planner

Search our weather history database for the weather conditions in past years. The results will help you decide how hot, cold, wet, or windy it might be!

Date:

Astronomy

Jun. 23, 2014 Rise Set
Actual Time 6:11 AM EDT 9:23 PM EDT
Civil Twilight 5:37 AM EDT 9:57 PM EDT
Nautical Twilight 4:53 AM EDT 10:41 PM EDT
Astronomical Twilight 4:00 AM EDT 11:34 PM EDT
Moon 3:39 AM EDT (6/23) 6:02 PM EDT (6/23)
Length of Visible Light 16h 20m
Length of Day
15h 12m
Waning Crescent, 13% of the Moon is Illuminated
Jun 23
Waning Crescent
Jun 27
New
Jul 5
First Quarter
Jul 12
Full
Jul 18
Last Quarter

Hourly Weather History & Observations

Time (EDT) Temp. Heat Index Dew Point Humidity Pressure Visibility Wind Dir Wind Speed Gust Speed Precip Events Conditions
12:54 AM 73.0 °F - 66.9 °F 81% 29.87 in 10.0 mi ESE 4.6 mph - N/A   Clear
1:54 AM 73.0 °F - 66.0 °F 79% 29.86 in 10.0 mi SE 8.1 mph - N/A   Clear
2:54 AM 72.0 °F - 64.9 °F 78% 29.86 in 10.0 mi ESE 5.8 mph - N/A   Clear
3:54 AM 71.1 °F - 64.9 °F 81% 29.86 in 10.0 mi ESE 5.8 mph - N/A   Clear
4:54 AM 70.0 °F - 64.9 °F 84% 29.85 in 10.0 mi ESE 5.8 mph - N/A   Mostly Cloudy
5:54 AM 70.0 °F - 64.9 °F 84% 29.86 in 10.0 mi ESE 4.6 mph - N/A   Mostly Cloudy
6:54 AM 71.1 °F - 64.9 °F 81% 29.86 in 10.0 mi ESE 5.8 mph - N/A   Mostly Cloudy
7:54 AM 72.0 °F - 66.0 °F 81% 29.86 in 10.0 mi South 3.5 mph - 0.00 in Rain Light Rain
8:02 AM 71.1 °F - 66.0 °F 84% 29.90 in 10.0 mi NW 13.8 mph 19.6 mph 0.00 in Rain , Thunderstorm Light Rain
8:24 AM 69.8 °F - 66.2 °F 88% 29.90 in 1.2 mi North 6.9 mph - N/A Rain , Thunderstorm Heavy Thunderstorms and Rain
8:33 AM 69.1 °F - 66.0 °F 90% 29.90 in 3.0 mi Calm Calm - 0.16 in Rain , Thunderstorm Thunderstorms and Rain
8:47 AM 69.1 °F - 66.0 °F 90% 29.90 in 1.8 mi Calm Calm - 0.19 in Rain , Thunderstorm Heavy Thunderstorms and Rain
8:54 AM 69.1 °F - 66.0 °F 90% 29.88 in 2.0 mi ESE 4.6 mph - 0.22 in Rain , Thunderstorm Light Thunderstorms and Rain
8:58 AM 70.0 °F - 66.9 °F 90% 29.89 in 6.0 mi ESE 4.6 mph - 0.00 in Rain , Thunderstorm Light Thunderstorms and Rain
9:26 AM 70.0 °F - 66.9 °F 90% 29.89 in 9.0 mi Calm Calm - 0.01 in Thunderstorm Overcast
9:34 AM 71.1 °F - 66.9 °F 87% 29.91 in 1.8 mi WNW 11.5 mph - 0.02 in Rain , Thunderstorm Rain
9:36 AM 70.0 °F - 66.9 °F 90% 29.91 in 0.8 mi NNW 9.2 mph - 0.06 in Rain , Thunderstorm Heavy Rain
9:38 AM 70.0 °F - 66.9 °F 90% 29.90 in 0.5 mi North 9.2 mph - 0.17 in Fog , Rain , Thunderstorm Heavy Thunderstorms and Rain
9:43 AM 70.0 °F - 66.9 °F 90% 29.90 in 0.5 mi North 6.9 mph - 0.45 in Fog , Rain , Thunderstorm Heavy Thunderstorms and Rain
9:48 AM 69.8 °F - 66.2 °F 88% 29.90 in 1.0 mi NNE 5.8 mph - N/A Rain , Thunderstorm Thunderstorms and Rain
9:51 AM 69.8 °F - 66.2 °F 88% 29.90 in 3.0 mi North 5.8 mph - 0.50 in Rain , Thunderstorm Light Thunderstorms and Rain
9:54 AM 70.0 °F - 66.9 °F 90% 29.88 in 6.0 mi North 5.8 mph - 0.50 in Rain , Thunderstorm Light Thunderstorms and Rain
10:03 AM 70.0 °F - 66.9 °F 90% 29.90 in 9.0 mi ENE 3.5 mph - 0.00 in Thunderstorm Overcast
10:23 AM 72.0 °F - 68.0 °F 87% 29.89 in 10.0 mi ESE 3.5 mph - 0.00 in   Overcast
10:54 AM 73.9 °F - 69.1 °F 85% 29.88 in 10.0 mi SSE 4.6 mph - 0.00 in   Scattered Clouds
11:10 AM 73.9 °F - 69.1 °F 85% 29.90 in 10.0 mi South 5.8 mph - N/A   Scattered Clouds
11:54 AM 77.0 °F - 69.1 °F 76% 29.89 in 10.0 mi SSW 6.9 mph - N/A   Partly Cloudy
12:54 PM 80.1 °F 83.2 °F 70.0 °F 71% 29.89 in 10.0 mi Variable 5.8 mph - N/A   Mostly Cloudy
1:12 PM 78.1 °F - 69.1 °F 74% 29.91 in 10.0 mi WNW 5.8 mph - N/A   Overcast
1:27 PM 79.0 °F - 70.0 °F 74% 29.89 in 10.0 mi West 3.5 mph - N/A Thunderstorm Overcast
1:54 PM 81.0 °F 84.9 °F 71.1 °F 72% 29.87 in 10.0 mi Calm Calm - N/A   Overcast
2:00 PM 81.0 °F 84.9 °F 71.1 °F 72% 29.88 in 10.0 mi Variable 3.5 mph - N/A   Scattered Clouds
2:54 PM 84.0 °F 89.0 °F 71.1 °F 65% 29.85 in 10.0 mi SSW 8.1 mph - N/A   Scattered Clouds
3:54 PM 84.2 °F 89.6 °F 71.6 °F 66% 29.84 in 10.0 mi SW 8.1 mph - N/A   Mostly Cloudy
4:54 PM 82.4 °F 87.2 °F 71.6 °F 70% 29.83 in 10.0 mi SSW 10.4 mph - N/A   Scattered Clouds
5:09 PM 82.0 °F 86.3 °F 71.1 °F 69% 29.84 in 10.0 mi SSW 13.8 mph - N/A Thunderstorm Scattered Clouds
5:17 PM 73.0 °F - 66.0 °F 79% 29.88 in 0.5 mi WSW 32.2 mph 48.3 mph 0.00 in Rain , Thunderstorm Light Rain
5:21 PM 70.0 °F - 66.0 °F 87% 29.87 in 0.5 mi West 23.0 mph 46.0 mph 0.16 in Fog , Rain , Thunderstorm Heavy Thunderstorms and Rain
5:26 PM 69.1 °F - 64.9 °F 87% 29.86 in 1.0 mi WNW 12.7 mph 39.1 mph 0.31 in Rain , Thunderstorm Heavy Thunderstorms and Rain
5:28 PM 69.1 °F - 64.9 °F 87% 29.87 in 2.0 mi West 13.8 mph 34.5 mph 0.31 in Rain , Thunderstorm Thunderstorms and Rain
5:30 PM 69.1 °F - 64.9 °F 87% 29.87 in 2.0 mi West 15.0 mph 28.8 mph 0.33 in Rain , Thunderstorm Light Thunderstorms and Rain
5:33 PM 69.8 °F - 64.4 °F 83% 29.87 in 3.0 mi West 18.4 mph 23.0 mph N/A Rain , Thunderstorm Light Thunderstorms and Rain
5:49 PM 69.8 °F - 64.4 °F 83% 29.87 in 8.0 mi West 12.7 mph - 0.35 in Rain , Thunderstorm Rain
6:54 PM 70.0 °F - 66.0 °F 87% 29.85 in 10.0 mi NW 4.6 mph - 0.05 in Rain Light Rain
7:54 PM 71.1 °F - 66.9 °F 87% 29.84 in 10.0 mi ESE 4.6 mph - 0.00 in   Partly Cloudy
8:18 PM 71.1 °F - 68.0 °F 90% 29.86 in 10.0 mi East 4.6 mph - N/A   Scattered Clouds
8:20 PM 71.1 °F - 68.0 °F 90% 29.86 in 10.0 mi East 6.9 mph - N/A   Mostly Cloudy
8:54 PM 71.1 °F - 66.9 °F 87% 29.86 in 10.0 mi ESE 6.9 mph - N/A   Scattered Clouds
9:54 PM 72.0 °F - 68.0 °F 87% 29.88 in 10.0 mi South 5.8 mph - N/A   Scattered Clouds
10:54 PM 71.1 °F - 68.0 °F 90% 29.88 in 10.0 mi South 6.9 mph - 0.00 in   Scattered Clouds
11:54 PM 70.0 °F - 66.9 °F 90% 29.87 in 10.0 mi South 3.5 mph - 0.00 in   Partly Cloudy